EN

Hourly Weather Ladne

Today, 5 August, Thursday

Time Temperature Precipitation Wind Pressure Humidity
00:00 +22°C° 0 mm 1 mps 747 mmHg 51%
01:00 +21°C° 0 mm 1 mps 747 mmHg 51%
02:00 +19°C° 0 mm 0 mps 747 mmHg 52%
03:00 +21°C° 0 mm 1 mps 747 mmHg 54%
04:00 +21°C° 0 mm 1 mps 746 mmHg 55%
05:00 +21°C° 0 mm 1 mps 746 mmHg 57%
06:00 +23°C° 0 mm 1 mps 746 mmHg 52%
07:00 +25°C° 0 mm 1 mps 746 mmHg 48%
08:00 +27°C° 0 mm 2 mps 747 mmHg 43%
09:00 +28°C° 0 mm 2 mps 746 mmHg 40%
10:00 +29°C° 0 mm 2 mps 746 mmHg 37%
11:00 +30°C° 0 mm 2 mps 746 mmHg 34%
12:00 +31°C° 0 mm 2 mps 746 mmHg 32%
13:00 +31°C° 0 mm 2 mps 745 mmHg 31%
14:00 +32°C° 0 mm 2 mps 745 mmHg 30%
15:00 +31°C° 0 mm 2 mps 745 mmHg 33%
16:00 +31°C° 0 mm 2 mps 745 mmHg 36%
17:00 +30°C° 0 mm 2 mps 744 mmHg 39%
18:00 +29°C° 0 mm 2 mps 744 mmHg 41%
19:00 +27°C° 0 mm 2 mps 744 mmHg 43%
20:00 +25°C° 0 mm 2 mps 743 mmHg 46%
21:00 +25°C° 0 mm 2 mps 743 mmHg 46%
22:00 +24°C° 0 mm 3 mps 743 mmHg 47%
23:00 +22°C° 0 mm 3 mps 743 mmHg 47%

Tomorrow, 6 August, Friday

Time Temperature Precipitation Wind Pressure Humidity
00:00 +22°C° 0 mm 3 mps 742 mmHg 48%
01:00 +23°C° 0 mm 2 mps 742 mmHg 48%
02:00 +23°C° 0 mm 2 mps 742 mmHg 48%
03:00 +21°C° 0 mm 2 mps 742 mmHg 51%
04:00 +21°C° 0 mm 2 mps 742 mmHg 54%
05:00 +21°C° 0 mm 3 mps 741 mmHg 56%
06:00 +24°C° 0 mm 3 mps 741 mmHg 53%
07:00 +27°C° 0 mm 4 mps 741 mmHg 50%
08:00 +29°C° 0 mm 5 mps 741 mmHg 47%
09:00 +32°C° 0 mm 5 mps 741 mmHg 44%
10:00 +33°C° 0 mm 5 mps 741 mmHg 40%
11:00 +35°C° 0 mm 6 mps 741 mmHg 37%
12:00 +36°C° 0 mm 5 mps 740 mmHg 34%
13:00 +36°C° 0 mm 5 mps 740 mmHg 32%
14:00 +37°C° 0 mm 5 mps 739 mmHg 30%
15:00 +37°C° 0 mm 5 mps 739 mmHg 32%
16:00 +36°C° 0 mm 4 mps 739 mmHg 34%
17:00 +35°C° 0 mm 3 mps 738 mmHg 36%
18:00 +33°C° 0.1 mm 3 mps 738 mmHg 42%
19:00 +29°C° 0.1 mm 3 mps 738 mmHg 48%
20:00 +27°C° 0.1 mm 3 mps 738 mmHg 53%
21:00 +26°C° 0.9 mm 3 mps 738 mmHg 60%
22:00 +25°C° 0.9 mm 3 mps 738 mmHg 67%
23:00 +22°C° 0.9 mm 3 mps 738 mmHg 75%

Day after tomorrow, 7 August, Saturday

Time Temperature Precipitation Wind Pressure Humidity
00:00 +22°C° 0.8 mm 4 mps 738 mmHg 75%
01:00 +21°C° 0.8 mm 4 mps 738 mmHg 75%
02:00 +21°C° 0.8 mm 5 mps 738 mmHg 75%
03:00 +21°C° 0.4 mm 4 mps 738 mmHg 75%
04:00 +21°C° 0.4 mm 4 mps 738 mmHg 74%
05:00 +20°C° 0.4 mm 3 mps 738 mmHg 74%
06:00 +22°C° 0.4 mm 4 mps 738 mmHg 67%
07:00 +25°C° 0.4 mm 4 mps 739 mmHg 60%
08:00 +27°C° 0.4 mm 4 mps 739 mmHg 53%
09:00 +28°C° 0.6 mm 4 mps 739 mmHg 51%
10:00 +29°C° 0.6 mm 3 mps 739 mmHg 48%
11:00 +30°C° 0.6 mm 3 mps 739 mmHg 46%
12:00 +31°C° 0.1 mm 2 mps 739 mmHg 43%
13:00 +34°C° 0.1 mm 2 mps 739 mmHg 40%
14:00 +35°C° 0.1 mm 2 mps 739 mmHg 38%
15:00 +34°C° 0 mm 2 mps 739 mmHg 41%
16:00 +32°C° 0 mm 2 mps 739 mmHg 44%
17:00 +33°C° 0 mm 3 mps 739 mmHg 47%
18:00 +30°C° 0.3 mm 2 mps 740 mmHg 54%
19:00 +27°C° 0.3 mm 2 mps 740 mmHg 61%
20:00 +25°C° 0.3 mm 2 mps 740 mmHg 68%
21:00 +25°C° 0.3 mm 2 mps 740 mmHg 70%
22:00 +24°C° 0.3 mm 2 mps 741 mmHg 72%
23:00 +24°C° 0.3 mm 2 mps 741 mmHg 73%

8 August, Sunday

Time Temperature Precipitation Wind Pressure Humidity
00:00 +22°C° 0.5 mm 3 mps 741 mmHg 80%
01:00 +21°C° 0.5 mm 3 mps 741 mmHg 86%
02:00 +20°C° 0.5 mm 4 mps 742 mmHg 92%
03:00 +20°C° 0.2 mm 4 mps 742 mmHg 93%
04:00 +20°C° 0.2 mm 4 mps 742 mmHg 94%
05:00 +20°C° 0.2 mm 4 mps 742 mmHg 94%
06:00 +21°C° 0 mm 4 mps 742 mmHg 88%
07:00 +23°C° 0 mm 5 mps 742 mmHg 82%
08:00 +25°C° 0 mm 5 mps 743 mmHg 76%
09:00 +27°C° 0 mm 5 mps 743 mmHg 69%
10:00 +28°C° 0 mm 5 mps 743 mmHg 62%
11:00 +30°C° 0 mm 4 mps 743 mmHg 55%
12:00 +32°C° 0 mm 4 mps 743 mmHg 52%
13:00 +32°C° 0 mm 4 mps 743 mmHg 48%
14:00 +33°C° 0 mm 4 mps 743 mmHg 45%
15:00 +33°C° 0 mm 4 mps 743 mmHg 47%
16:00 +32°C° 0 mm 4 mps 743 mmHg 48%
17:00 +30°C° 0 mm 4 mps 743 mmHg 50%
18:00 +29°C° 0 mm 4 mps 744 mmHg 53%
19:00 +27°C° 0 mm 4 mps 744 mmHg 57%
20:00 +26°C° 0 mm 4 mps 744 mmHg 60%
21:00 +25°C° 0 mm 4 mps 744 mmHg 63%
22:00 +24°C° 0 mm 3 mps 745 mmHg 65%
23:00 +22°C° 0 mm 3 mps 745 mmHg 68%

9 August, Monday

Time Temperature Precipitation Wind Pressure Humidity
00:00 +21°C° 0 mm 3 mps 745 mmHg 71%
01:00 +20°C° 0 mm 3 mps 745 mmHg 74%
02:00 +20°C° 0 mm 3 mps 745 mmHg 77%
03:00 +19°C° 0 mm 3 mps 745 mmHg 78%
04:00 +19°C° 0 mm 3 mps 745 mmHg 80%
05:00 +19°C° 0 mm 2 mps 746 mmHg 81%
06:00 +21°C° 0 mm 2 mps 746 mmHg 73%
07:00 +24°C° 0 mm 2 mps 746 mmHg 64%
08:00 +26°C° 0 mm 2 mps 746 mmHg 56%
09:00 +28°C° 0 mm 2 mps 746 mmHg 50%
10:00 +29°C° 0 mm 2 mps 746 mmHg 44%
11:00 +31°C° 0 mm 2 mps 746 mmHg 39%
12:00 +31°C° 0 mm 2 mps 746 mmHg 37%
13:00 +32°C° 0 mm 2 mps 746 mmHg 35%
14:00 +32°C° 0 mm 2 mps 746 mmHg 34%
15:00 +32°C° 0 mm 2 mps 746 mmHg 35%
16:00 +32°C° 0 mm 2 mps 745 mmHg 36%
17:00 +32°C° 0 mm 2 mps 745 mmHg 37%
18:00 +30°C° 0 mm 2 mps 746 mmHg 41%
19:00 +28°C° 0 mm 2 mps 746 mmHg 45%
20:00 +26°C° 0 mm 3 mps 746 mmHg 50%
21:00 +25°C° 0 mm 2 mps 746 mmHg 52%
22:00 +24°C° 0 mm 2 mps 746 mmHg 55%
23:00 +23°C° 0 mm 2 mps 746 mmHg 58%

10 August, Tuesday

Time Temperature Precipitation Wind Pressure Humidity
00:00 +23°C° 0 mm 2 mps 746 mmHg 60%
01:00 +21°C° 0 mm 2 mps 746 mmHg 62%
02:00 +22°C° 0 mm 1 mps 746 mmHg 64%
03:00 +22°C° 0 mm 1 mps 746 mmHg 65%
04:00 +21°C° 0 mm 1 mps 747 mmHg 66%
05:00 +21°C° 0 mm 1 mps 747 mmHg 68%
06:00 +23°C° 0 mm 2 mps 747 mmHg 62%
07:00 +25°C° 0 mm 2 mps 747 mmHg 56%
08:00 +27°C° 0 mm 2 mps 747 mmHg 50%
09:00 +29°C° 0 mm 2 mps 747 mmHg 45%
10:00 +30°C° 0 mm 3 mps 746 mmHg 41%
11:00 +31°C° 0 mm 3 mps 746 mmHg 37%
12:00 +33°C° 0 mm 3 mps 746 mmHg 35%
13:00 +33°C° 0 mm 3 mps 746 mmHg 33%
14:00 +34°C° 0 mm 3 mps 745 mmHg 30%
15:00 +34°C° 0 mm 3 mps 745 mmHg 32%
16:00 +34°C° 0 mm 2 mps 745 mmHg 34%
17:00 +32°C° 0 mm 2 mps 745 mmHg 35%
18:00 +30°C° 0 mm 2 mps 745 mmHg 39%
19:00 +28°C° 0 mm 2 mps 744 mmHg 42%
20:00 +27°C° 0 mm 2 mps 744 mmHg 46%
21:00 +26°C° 0 mm 2 mps 744 mmHg 47%
22:00 +26°C° 0 mm 2 mps 744 mmHg 48%
23:00 +25°C° 0 mm 2 mps 744 mmHg 49%
Show more